COSMOS 249 DEB *, 4008

Orbit data source: Space-Track

COSMOS 249 DEB *, 4008 is space debris in LEO originally from a launch on Sun, 20 Oct 1968 UTC launched from the Tyuratam Missile And Space Complex (TTMTR). Debris objects in space refer to the collection of defunct objects orbiting the Earth. Examples of debris include non-operational satellites, rocket bodies, and fragments generated from explosions, collisions, or faulty payload assembly.

Loading next visibility...
Identifier
4008, 1968-091BY
Orbit
LEO
Country
Flag of CISCIS
Related business
Manufacturer
Unknown
Mission
Spacecraft
Bus & Motor
Unknown
Mass
Unknown
Launch date (UTC)
1968-10-20 (58 years ago)
Launch vehicle
Unknown
Launch site
Tyuratam Missile And Space Complex (TTMTR)
Object type
Payload
Rocket body
Debris
Shape & HBR
Unknown shape, 0.1 m
Radar Cross Section
Small (<0.1 m²)

Expand to show TLE details & history
Last TLE update: 23 hours ago

TLE from 23 hours ago
0 COSMOS 249 DEB *
1 04008U 68091BY  26125.00437113  .00001382  00000-0  35252-3 0  9995
2 04008  62.8511 337.9755 0497989 198.1408 160.1309 13.99515687834653
Epoch: 2026-05-05T00:06Z
TLE epoch observation values (Epoch: 2026-05-05T00:06:17.665Z)
Latitude
Longitude
113.51646°
Altitude
1,239.863 km
Speed
7.063 km/s
True Right ascension
22h 31m 54s
True Declination
0° 00' 00"
Sunlit
Object was in daylight at epoch
Visualization orbit readout
Latitude
Unknown
Longitude
Unknown
Altitude
Unknown
Speed
Unknown
Apparent Right ascension
Unknown
Apparent Declination
Unknown
Sunlit
N/A
Visualization observer readout
Local Sidereal Time
07:19:49
Azimuth
Unknown
Elevation
Unknown
Doppler factor
Unknown
Orbital elements
Apogee altitude
1,256.498 km
Perigee altitude
532.175 km
Semi-major axis
7,272.474 km
Eccentricity
0.0498
Inclination
62.8511°
RAAN
337.9755°
Arg. of periapsis
198.1408°
True anomaly
161.9626°
Mean anomaly
160.1309°
Eccentric anomaly
161.05714°
Mean motion
3.49961 °/min
Orbital period
102.87 mins
BSTAR
0.00035252
Loading maneuver chart data...
Computing Atmospheric mass density...

Documentation

Showing up to 5 results
|